Year,Month,Day,Hour,Minute,Value (Times are PST for temperature in C)
2007,06,23,00,00,13.20
2007,06,23,00,01,13.20
2007,06,23,00,02,13.20
2007,06,23,00,03,13.10
2007,06,23,00,04,13.10
2007,06,23,00,05,13.10
2007,06,23,00,06,13.10
2007,06,23,00,07,13.10
2007,06,23,00,08,13.10
2007,06,23,00,09,13.00
2007,06,23,00,10,13.00
2007,06,23,00,11,13.00
2007,06,23,00,12,13.00
2007,06,23,00,13,13.00
2007,06,23,00,14,13.00
2007,06,23,00,15,13.00
2007,06,23,00,16,13.00
2007,06,23,00,17,13.00
2007,06,23,00,18,13.00
2007,06,23,00,19,13.10
2007,06,23,00,20,13.10
2007,06,23,00,21,13.10
2007,06,23,00,22,13.10
2007,06,23,00,23,13.10
2007,06,23,00,24,13.10
2007,06,23,00,25,13.20
2007,06,23,00,26,13.20
2007,06,23,00,27,13.20
2007,06,23,00,28,13.20
2007,06,23,00,29,13.30
2007,06,23,00,30,13.30
2007,06,23,00,31,13.30
2007,06,23,00,32,13.30
2007,06,23,00,33,13.30
2007,06,23,00,34,13.30
2007,06,23,00,35,13.30
2007,06,23,00,36,13.30
2007,06,23,00,37,13.40
2007,06,23,00,38,13.40
2007,06,23,00,39,13.40
2007,06,23,00,40,13.40
2007,06,23,00,41,13.40
2007,06,23,00,42,13.40
2007,06,23,00,43,13.50
2007,06,23,00,44,13.50
2007,06,23,00,45,13.50
2007,06,23,00,46,13.50
2007,06,23,00,47,13.50
2007,06,23,00,48,13.50
2007,06,23,00,49,13.50
2007,06,23,00,50,13.50
2007,06,23,00,51,13.50
2007,06,23,00,52,13.50
2007,06,23,00,53,13.50
2007,06,23,00,54,13.50
2007,06,23,00,55,13.50
2007,06,23,00,56,13.50
2007,06,23,00,57,13.50
2007,06,23,00,58,13.50
2007,06,23,00,59,13.50
2007,06,23,01,00,13.50
2007,06,23,01,01,13.50
2007,06,23,01,02,13.50
2007,06,23,01,03,13.50
2007,06,23,01,04,13.50
2007,06,23,01,05,13.50
2007,06,23,01,06,13.50
2007,06,23,01,07,13.50
2007,06,23,01,08,13.50
2007,06,23,01,09,13.50
2007,06,23,01,10,13.50
2007,06,23,01,11,13.50
2007,06,23,01,12,13.50
2007,06,23,01,13,13.50
2007,06,23,01,14,13.50
2007,06,23,01,15,13.50
2007,06,23,01,16,13.50
2007,06,23,01,17,13.40
2007,06,23,01,18,13.40
2007,06,23,01,19,13.40
2007,06,23,01,20,13.40
2007,06,23,01,21,13.40
2007,06,23,01,22,13.30
2007,06,23,01,23,13.30
2007,06,23,01,24,13.30
2007,06,23,01,25,13.30
2007,06,23,01,26,13.30
2007,06,23,01,27,13.30
2007,06,23,01,28,13.30
2007,06,23,01,29,13.30
2007,06,23,01,30,13.30
2007,06,23,01,31,13.30
2007,06,23,01,32,13.30
2007,06,23,01,33,13.30
2007,06,23,01,34,13.30
2007,06,23,01,35,13.30
2007,06,23,01,36,13.30
2007,06,23,01,37,13.30
2007,06,23,01,38,13.20
2007,06,23,01,39,13.20
2007,06,23,01,40,13.20
2007,06,23,01,41,13.20
2007,06,23,01,42,13.20
2007,06,23,01,43,13.20
2007,06,23,01,44,13.20
2007,06,23,01,45,13.10
2007,06,23,01,46,13.10
2007,06,23,01,47,13.10
2007,06,23,01,48,13.10
2007,06,23,01,49,13.10
2007,06,23,01,50,13.10
2007,06,23,01,51,13.10
2007,06,23,01,52,13.10
2007,06,23,01,53,13.10
2007,06,23,01,54,13.10
2007,06,23,01,55,13.10
2007,06,23,01,56,13.10
2007,06,23,01,57,13.10
2007,06,23,01,58,13.10
2007,06,23,01,59,13.10
2007,06,23,02,00,13.10
2007,06,23,02,01,13.10
2007,06,23,02,02,13.10
2007,06,23,02,03,13.10
2007,06,23,02,04,13.10
2007,06,23,02,05,13.10
2007,06,23,02,06,13.10
2007,06,23,02,07,13.10
2007,06,23,02,08,13.10
2007,06,23,02,09,13.10
2007,06,23,02,10,13.10
2007,06,23,02,11,13.10
2007,06,23,02,12,13.10
2007,06,23,02,13,13.10
2007,06,23,02,14,13.10
2007,06,23,02,15,13.10
2007,06,23,02,16,13.10
2007,06,23,02,17,13.10
2007,06,23,02,18,13.10
2007,06,23,02,19,13.20
2007,06,23,02,20,13.20
2007,06,23,02,21,13.20
2007,06,23,02,22,13.20
2007,06,23,02,23,13.20
2007,06,23,02,24,13.20
2007,06,23,02,25,13.10
2007,06,23,02,26,13.10
2007,06,23,02,27,13.10
2007,06,23,02,28,13.10
2007,06,23,02,29,13.10
2007,06,23,02,30,13.10
2007,06,23,02,31,13.10
2007,06,23,02,32,13.10
2007,06,23,02,33,13.10
2007,06,23,02,34,13.10
2007,06,23,02,35,13.00
2007,06,23,02,36,13.00
2007,06,23,02,37,13.00
2007,06,23,02,38,13.00
2007,06,23,02,39,12.90
2007,06,23,02,40,12.80
2007,06,23,02,41,12.80
2007,06,23,02,42,12.80
2007,06,23,02,43,12.70
2007,06,23,02,44,12.60
2007,06,23,02,45,12.60
2007,06,23,02,46,12.50
2007,06,23,02,47,12.50
2007,06,23,02,48,12.40
2007,06,23,02,49,12.30
2007,06,23,02,50,12.20
2007,06,23,02,51,12.10
2007,06,23,02,52,12.10
2007,06,23,02,53,12.00
2007,06,23,02,54,11.90
2007,06,23,02,55,11.90
2007,06,23,02,56,11.80
2007,06,23,02,57,11.80
2007,06,23,02,58,11.80
2007,06,23,02,59,11.80
2007,06,23,03,00,11.80
2007,06,23,03,01,11.70
2007,06,23,03,02,11.70
2007,06,23,03,03,11.70
2007,06,23,03,04,11.70
2007,06,23,03,05,11.60
2007,06,23,03,06,11.60
2007,06,23,03,07,11.60
2007,06,23,03,08,11.60
2007,06,23,03,09,11.60
2007,06,23,03,10,11.60
2007,06,23,03,11,11.60
2007,06,23,03,12,11.60
2007,06,23,03,13,11.60
2007,06,23,03,14,11.60
2007,06,23,03,15,11.60
2007,06,23,03,16,11.60
2007,06,23,03,17,11.60
2007,06,23,03,18,11.60
2007,06,23,03,19,11.60
2007,06,23,03,20,11.60
2007,06,23,03,21,11.50
2007,06,23,03,22,11.40
2007,06,23,03,23,11.40
2007,06,23,03,24,11.40
2007,06,23,03,25,11.40
2007,06,23,03,26,11.40
2007,06,23,03,27,11.40
2007,06,23,03,28,11.40
2007,06,23,03,29,11.40
2007,06,23,03,30,11.40
2007,06,23,03,31,11.40
2007,06,23,03,32,11.40
2007,06,23,03,33,11.40
2007,06,23,03,34,11.40
2007,06,23,03,35,11.40
2007,06,23,03,36,11.40
2007,06,23,03,37,11.40
2007,06,23,03,38,11.40
2007,06,23,03,39,11.40
2007,06,23,03,40,11.40
2007,06,23,03,41,11.40
2007,06,23,03,42,11.40
2007,06,23,03,43,11.40
2007,06,23,03,44,11.40
2007,06,23,03,45,11.40
2007,06,23,03,46,11.40
2007,06,23,03,47,11.40
2007,06,23,03,48,11.40
2007,06,23,03,49,11.40
2007,06,23,03,50,11.40
2007,06,23,03,51,11.40
2007,06,23,03,52,11.40
2007,06,23,03,53,11.40
2007,06,23,03,54,11.40
2007,06,23,03,55,11.40
2007,06,23,03,56,11.40
2007,06,23,03,57,11.40
2007,06,23,03,58,11.40
2007,06,23,03,59,11.40
2007,06,23,04,00,11.40
2007,06,23,04,01,11.40
2007,06,23,04,02,11.30
2007,06,23,04,03,11.30
2007,06,23,04,04,11.30
2007,06,23,04,05,11.30
2007,06,23,04,06,11.30
2007,06,23,04,07,11.30
2007,06,23,04,08,11.30
2007,06,23,04,09,11.40
2007,06,23,04,10,11.40
2007,06,23,04,11,11.40
2007,06,23,04,12,11.40
2007,06,23,04,13,11.40
2007,06,23,04,14,11.40
2007,06,23,04,15,11.40
2007,06,23,04,16,11.40
2007,06,23,04,17,11.40
2007,06,23,04,18,11.40
2007,06,23,04,19,11.40
2007,06,23,04,20,11.40
2007,06,23,04,21,11.40
2007,06,23,04,22,11.40
2007,06,23,04,23,11.40
2007,06,23,04,24,11.40
2007,06,23,04,25,11.40
2007,06,23,04,26,11.40
2007,06,23,04,27,11.40
2007,06,23,04,28,11.40
2007,06,23,04,29,11.40
2007,06,23,04,30,11.40
2007,06,23,04,31,11.40
2007,06,23,04,32,11.40
2007,06,23,04,33,11.40
2007,06,23,04,34,11.40
2007,06,23,04,35,11.40
2007,06,23,04,36,11.40
2007,06,23,04,37,11.40
2007,06,23,04,38,11.40
2007,06,23,04,39,11.40
2007,06,23,04,40,11.40
2007,06,23,04,41,11.60
2007,06,23,04,42,11.60
2007,06,23,04,43,11.60
2007,06,23,04,44,11.60
2007,06,23,04,45,11.60
2007,06,23,04,46,11.60
2007,06,23,04,47,11.60
2007,06,23,04,48,11.60
2007,06,23,04,49,11.60
2007,06,23,04,50,11.60
2007,06,23,04,51,11.60
2007,06,23,04,52,11.60
2007,06,23,04,53,11.60
2007,06,23,04,54,11.60
2007,06,23,04,55,11.60
2007,06,23,04,56,11.60
2007,06,23,04,57,11.60
2007,06,23,04,58,11.60
2007,06,23,04,59,11.60
2007,06,23,05,00,11.60
2007,06,23,05,01,11.60
2007,06,23,05,02,11.60
2007,06,23,05,03,11.60
2007,06,23,05,04,11.60
2007,06,23,05,05,11.60
2007,06,23,05,06,11.60
2007,06,23,05,07,11.60
2007,06,23,05,08,11.60
2007,06,23,05,09,11.60
2007,06,23,05,10,11.60
2007,06,23,05,11,11.60
2007,06,23,05,12,11.60
2007,06,23,05,13,11.60
2007,06,23,05,14,11.60
2007,06,23,05,15,11.60
2007,06,23,05,16,11.60
2007,06,23,05,17,11.60
2007,06,23,05,18,11.60
2007,06,23,05,19,11.60
2007,06,23,05,20,11.60
2007,06,23,05,21,11.60
2007,06,23,05,22,11.60
2007,06,23,05,23,11.60
2007,06,23,05,24,11.60
2007,06,23,05,25,11.60
2007,06,23,05,26,11.60
2007,06,23,05,27,11.60
2007,06,23,05,28,11.60
2007,06,23,05,29,11.60
2007,06,23,05,30,11.60
2007,06,23,05,31,11.60
2007,06,23,05,32,11.60
2007,06,23,05,33,11.60
2007,06,23,05,34,11.60
2007,06,23,05,35,11.60
2007,06,23,05,36,11.60
2007,06,23,05,37,11.60
2007,06,23,05,38,11.60
2007,06,23,05,39,11.60
2007,06,23,05,40,11.60
2007,06,23,05,41,11.60
2007,06,23,05,42,11.60
2007,06,23,05,43,11.60
2007,06,23,05,44,11.60
2007,06,23,05,45,11.60
2007,06,23,05,46,11.60
2007,06,23,05,47,11.60
2007,06,23,05,48,11.60
2007,06,23,05,49,11.60
2007,06,23,05,50,11.60
2007,06,23,05,51,11.60
2007,06,23,05,52,11.60
2007,06,23,05,53,11.60
2007,06,23,05,54,11.60
2007,06,23,05,55,11.60
2007,06,23,05,56,11.60
2007,06,23,05,57,11.60
2007,06,23,05,58,11.60
2007,06,23,05,59,11.60
2007,06,23,06,00,11.60
2007,06,23,06,01,11.60
2007,06,23,06,02,11.60
2007,06,23,06,03,11.60
2007,06,23,06,04,11.60
2007,06,23,06,05,11.60
2007,06,23,06,06,11.50
2007,06,23,06,07,11.40
2007,06,23,06,08,11.40
2007,06,23,06,09,11.40
2007,06,23,06,10,11.40
2007,06,23,06,11,11.40
2007,06,23,06,12,11.40
2007,06,23,06,13,11.40
2007,06,23,06,14,11.40
2007,06,23,06,15,11.40
2007,06,23,06,16,11.40
2007,06,23,06,17,11.40
2007,06,23,06,18,11.40
2007,06,23,06,19,11.40
2007,06,23,06,20,11.40
2007,06,23,06,21,11.40
2007,06,23,06,22,11.40
2007,06,23,06,23,11.30
2007,06,23,06,24,11.30
2007,06,23,06,25,11.30
2007,06,23,06,26,11.30
2007,06,23,06,27,11.30
2007,06,23,06,28,11.30
2007,06,23,06,29,11.30
2007,06,23,06,30,11.30
2007,06,23,06,31,11.30
2007,06,23,06,32,11.30
2007,06,23,06,33,11.30
2007,06,23,06,34,11.30
2007,06,23,06,35,11.30
2007,06,23,06,36,11.40
2007,06,23,06,37,11.40
2007,06,23,06,38,11.40
2007,06,23,06,39,11.40
2007,06,23,06,40,11.40
2007,06,23,06,41,11.40
2007,06,23,06,42,11.40
2007,06,23,06,43,11.40
2007,06,23,06,44,11.40
2007,06,23,06,45,11.40
2007,06,23,06,46,11.40
2007,06,23,06,47,11.40
2007,06,23,06,48,11.40
2007,06,23,06,49,11.40
2007,06,23,06,50,11.40
2007,06,23,06,51,11.40
2007,06,23,06,52,11.40
2007,06,23,06,53,11.40
2007,06,23,06,54,11.40
2007,06,23,06,55,11.40
2007,06,23,06,56,11.40
2007,06,23,06,57,11.40
2007,06,23,06,58,11.40
2007,06,23,06,59,11.40
2007,06,23,07,00,11.40
2007,06,23,07,01,11.40
2007,06,23,07,02,11.40
2007,06,23,07,03,11.40
2007,06,23,07,04,11.40
2007,06,23,07,05,11.40
2007,06,23,07,06,11.40
2007,06,23,07,07,11.50
2007,06,23,07,08,11.60
2007,06,23,07,09,11.60
2007,06,23,07,10,11.60
2007,06,23,07,11,11.60
2007,06,23,07,12,11.60
2007,06,23,07,13,11.60
2007,06,23,07,14,11.60
2007,06,23,07,15,11.60
2007,06,23,07,16,11.60
2007,06,23,07,17,11.60
2007,06,23,07,18,11.60
2007,06,23,07,19,11.70
2007,06,23,07,20,11.70
2007,06,23,07,21,11.70
2007,06,23,07,22,11.70
2007,06,23,07,23,11.80
2007,06,23,07,24,11.80
2007,06,23,07,25,11.80
2007,06,23,07,26,11.80
2007,06,23,07,27,11.80
2007,06,23,07,28,11.80
2007,06,23,07,29,11.90
2007,06,23,07,30,11.90
2007,06,23,07,31,11.80
2007,06,23,07,32,11.90
2007,06,23,07,33,11.90
2007,06,23,07,34,11.90
2007,06,23,07,35,12.00
2007,06,23,07,36,12.00
2007,06,23,07,37,12.00
2007,06,23,07,38,12.10
2007,06,23,07,39,12.10
2007,06,23,07,40,12.20
2007,06,23,07,41,12.30
2007,06,23,07,42,12.40
2007,06,23,07,43,12.50
2007,06,23,07,44,12.60
2007,06,23,07,45,12.60
2007,06,23,07,46,12.60
2007,06,23,07,47,12.60
2007,06,23,07,48,12.70
2007,06,23,07,49,12.70
2007,06,23,07,50,12.70
2007,06,23,07,51,12.70
2007,06,23,07,52,12.80
2007,06,23,07,53,12.80
2007,06,23,07,54,12.80
2007,06,23,07,55,12.80
2007,06,23,07,56,12.80
2007,06,23,07,57,12.80
2007,06,23,07,58,12.80
2007,06,23,07,59,13.00
2007,06,23,08,00,13.10
2007,06,23,08,01,13.20
2007,06,23,08,02,13.40
2007,06,23,08,03,13.60
2007,06,23,08,04,13.80
2007,06,23,08,05,13.80
2007,06,23,08,06,13.80
2007,06,23,08,07,13.80
2007,06,23,08,08,13.80
2007,06,23,08,09,13.70
2007,06,23,08,10,13.60
2007,06,23,08,11,13.50
2007,06,23,08,12,13.40
2007,06,23,08,13,13.30
2007,06,23,08,14,13.30
2007,06,23,08,15,13.30
2007,06,23,08,16,13.30
2007,06,23,08,17,13.30
2007,06,23,08,18,13.30
2007,06,23,08,19,13.20
2007,06,23,08,20,13.10
2007,06,23,08,21,13.00
2007,06,23,08,22,12.90
2007,06,23,08,23,12.80
2007,06,23,08,24,12.80
2007,06,23,08,25,12.80
2007,06,23,08,26,12.80
2007,06,23,08,27,12.80
2007,06,23,08,28,12.80
2007,06,23,08,29,12.80
2007,06,23,08,30,12.80
2007,06,23,08,31,12.80
2007,06,23,08,32,12.80
2007,06,23,08,33,12.80
2007,06,23,08,34,12.70
2007,06,23,08,35,12.70
2007,06,23,08,36,12.70
2007,06,23,08,37,12.70
2007,06,23,08,38,12.70
2007,06,23,08,39,12.70
2007,06,23,08,40,12.80
2007,06,23,08,41,12.90
2007,06,23,08,42,13.00
2007,06,23,08,43,13.00
2007,06,23,08,44,13.10
2007,06,23,08,45,13.20
2007,06,23,08,46,13.30
2007,06,23,08,47,13.30
2007,06,23,08,48,13.30
2007,06,23,08,49,13.30
2007,06,23,08,50,13.30
2007,06,23,08,51,13.40
2007,06,23,08,52,13.30
2007,06,23,08,53,13.30
2007,06,23,08,54,13.40
2007,06,23,08,55,13.50
2007,06,23,08,56,13.50
2007,06,23,08,57,13.60
2007,06,23,08,58,13.60
2007,06,23,08,59,13.70
2007,06,23,09,00,13.70
2007,06,23,09,01,13.70
2007,06,23,09,02,13.70
2007,06,23,09,03,13.80
2007,06,23,09,04,13.80
2007,06,23,09,05,13.80
2007,06,23,09,06,13.70
2007,06,23,09,07,13.70
2007,06,23,09,08,13.80
2007,06,23,09,09,13.90
2007,06,23,09,10,13.90
2007,06,23,09,11,14.00
2007,06,23,09,12,14.00
2007,06,23,09,13,13.90
2007,06,23,09,14,13.90
2007,06,23,09,15,13.90
2007,06,23,09,16,13.80
2007,06,23,09,17,13.70
2007,06,23,09,18,13.70
2007,06,23,09,19,13.80
2007,06,23,09,20,13.90
2007,06,23,09,21,14.00
2007,06,23,09,22,14.10
2007,06,23,09,23,14.10
2007,06,23,09,24,14.10
2007,06,23,09,25,14.30
2007,06,23,09,26,14.30
2007,06,23,09,27,14.20
2007,06,23,09,28,14.20
2007,06,23,09,29,14.20
2007,06,23,09,30,14.10
2007,06,23,09,31,14.10
2007,06,23,09,32,14.10
2007,06,23,09,33,14.20
2007,06,23,09,34,14.20
2007,06,23,09,35,14.20
2007,06,23,09,36,14.20
2007,06,23,09,37,14.10
2007,06,23,09,38,14.00
2007,06,23,09,39,13.90
2007,06,23,09,40,13.90
2007,06,23,09,41,13.70
2007,06,23,09,42,13.60
2007,06,23,09,43,13.50
2007,06,23,09,44,13.30
2007,06,23,09,45,13.30
2007,06,23,09,46,13.30
2007,06,23,09,47,13.30
2007,06,23,09,48,13.20
2007,06,23,09,49,13.10
2007,06,23,09,50,13.10
2007,06,23,09,51,13.00
2007,06,23,09,52,13.10
2007,06,23,09,53,13.10
2007,06,23,09,54,13.20
2007,06,23,09,55,13.30
2007,06,23,09,56,13.20
2007,06,23,09,57,13.20
2007,06,23,09,58,13.20
2007,06,23,09,59,13.20
2007,06,23,10,00,13.10
2007,06,23,10,01,13.10
2007,06,23,10,02,13.00
2007,06,23,10,03,13.00
2007,06,23,10,04,13.00
2007,06,23,10,05,13.00
2007,06,23,10,06,13.00
2007,06,23,10,07,13.00
2007,06,23,10,08,13.00
2007,06,23,10,09,12.90
2007,06,23,10,10,12.90
2007,06,23,10,11,12.90
2007,06,23,10,12,12.80
2007,06,23,10,13,12.80
2007,06,23,10,14,12.80
2007,06,23,10,15,12.80
2007,06,23,10,16,12.80
2007,06,23,10,17,12.80
2007,06,23,10,18,12.80
2007,06,23,10,19,12.80
2007,06,23,10,20,12.80
2007,06,23,10,21,12.80
2007,06,23,10,22,13.00
2007,06,23,10,23,13.00
2007,06,23,10,24,13.00
2007,06,23,10,25,13.10
2007,06,23,10,26,13.20
2007,06,23,10,27,13.20
2007,06,23,10,28,13.20
2007,06,23,10,29,13.20
2007,06,23,10,30,13.10
2007,06,23,10,31,13.10
2007,06,23,10,32,13.10
2007,06,23,10,33,13.00
2007,06,23,10,34,13.00
2007,06,23,10,35,13.00
2007,06,23,10,36,12.90
2007,06,23,10,37,12.90
2007,06,23,10,38,12.90
2007,06,23,10,39,12.90
2007,06,23,10,40,12.90
2007,06,23,10,41,12.90
2007,06,23,10,42,12.90
2007,06,23,10,43,13.00
2007,06,23,10,44,12.90
2007,06,23,10,45,12.80
2007,06,23,10,46,12.80
2007,06,23,10,47,12.80
2007,06,23,10,48,12.90
2007,06,23,10,49,12.90
2007,06,23,10,50,13.00
2007,06,23,10,51,13.00
2007,06,23,10,52,13.00
2007,06,23,10,53,13.00
2007,06,23,10,54,13.10
2007,06,23,10,55,13.10
2007,06,23,10,56,13.20
2007,06,23,10,57,13.10
2007,06,23,10,58,13.10
2007,06,23,10,59,13.10
2007,06,23,11,00,13.20
2007,06,23,11,01,13.30
2007,06,23,11,02,13.30
2007,06,23,11,03,13.40
2007,06,23,11,04,13.40
2007,06,23,11,05,13.40
2007,06,23,11,06,13.40
2007,06,23,11,07,13.40
2007,06,23,11,08,13.40
2007,06,23,11,09,13.40
2007,06,23,11,10,13.30
2007,06,23,11,11,13.30
2007,06,23,11,12,13.30
2007,06,23,11,13,13.30
2007,06,23,11,14,13.40
2007,06,23,11,15,13.40
2007,06,23,11,16,13.30
2007,06,23,11,17,13.40
2007,06,23,11,18,13.50
2007,06,23,11,19,13.60
2007,06,23,11,20,13.70
2007,06,23,11,21,13.60
2007,06,23,11,22,13.50
2007,06,23,11,23,13.50
2007,06,23,11,24,13.50
2007,06,23,11,25,13.60
2007,06,23,11,26,13.70
2007,06,23,11,27,13.70
2007,06,23,11,28,13.60
2007,06,23,11,29,13.50
2007,06,23,11,30,13.60
2007,06,23,11,31,13.60
2007,06,23,11,32,13.70
2007,06,23,11,33,13.70
2007,06,23,11,34,13.70
2007,06,23,11,35,13.80
2007,06,23,11,36,13.90
2007,06,23,11,37,13.90
2007,06,23,11,38,13.80
2007,06,23,11,39,13.90
2007,06,23,11,40,13.90
2007,06,23,11,41,13.80
2007,06,23,11,42,13.70
2007,06,23,11,43,13.70
2007,06,23,11,44,13.70
2007,06,23,11,45,13.70
2007,06,23,11,46,13.70
2007,06,23,11,47,13.70
2007,06,23,11,48,13.70
2007,06,23,11,49,13.70
2007,06,23,11,50,13.80
2007,06,23,11,51,13.90
2007,06,23,11,52,14.00
2007,06,23,11,53,14.00
2007,06,23,11,54,14.00
2007,06,23,11,55,13.80
2007,06,23,11,56,13.70
2007,06,23,11,57,13.70
2007,06,23,11,58,13.60
2007,06,23,11,59,13.70
2007,06,23,12,00,13.70
2007,06,23,12,01,13.80
2007,06,23,12,02,13.80
2007,06,23,12,03,13.70
2007,06,23,12,04,13.80
2007,06,23,12,05,13.80
2007,06,23,12,06,13.80
2007,06,23,12,07,13.80
2007,06,23,12,08,13.90
2007,06,23,12,09,14.00
2007,06,23,12,10,13.90
2007,06,23,12,11,13.90
2007,06,23,12,12,14.00
2007,06,23,12,13,14.10
2007,06,23,12,14,14.20
2007,06,23,12,15,14.20
2007,06,23,12,16,14.20
2007,06,23,12,17,14.20
2007,06,23,12,18,14.10
2007,06,23,12,19,14.20
2007,06,23,12,20,14.20
2007,06,23,12,21,14.20
2007,06,23,12,22,14.20
2007,06,23,12,23,14.20
2007,06,23,12,24,14.20
2007,06,23,12,25,14.30
2007,06,23,12,26,14.40
2007,06,23,12,27,14.40
2007,06,23,12,28,14.50
2007,06,23,12,29,14.60
2007,06,23,12,30,14.60
2007,06,23,12,31,14.60
2007,06,23,12,32,14.60
2007,06,23,12,33,14.50
2007,06,23,12,34,14.50
2007,06,23,12,35,14.50
2007,06,23,12,36,14.50
2007,06,23,12,37,14.50
2007,06,23,12,38,14.60
2007,06,23,12,39,14.70
2007,06,23,12,40,14.80
2007,06,23,12,41,14.70
2007,06,23,12,42,14.60
2007,06,23,12,43,14.60
2007,06,23,12,44,14.60
2007,06,23,12,45,14.70
2007,06,23,12,46,14.70
2007,06,23,12,47,14.60
2007,06,23,12,48,14.60
2007,06,23,12,49,14.70
2007,06,23,12,50,14.80
2007,06,23,12,51,14.90
2007,06,23,12,52,15.00
2007,06,23,12,53,14.90
2007,06,23,12,54,14.80
2007,06,23,12,55,14.80
2007,06,23,12,56,14.70
2007,06,23,12,57,14.60
2007,06,23,12,58,14.50
2007,06,23,12,59,14.50
2007,06,23,13,00,14.60
2007,06,23,13,01,14.70
2007,06,23,13,02,14.70
2007,06,23,13,03,14.80
2007,06,23,13,04,14.80
2007,06,23,13,05,14.80
2007,06,23,13,06,14.80
2007,06,23,13,07,14.80
2007,06,23,13,08,14.80
2007,06,23,13,09,14.80
2007,06,23,13,10,14.70
2007,06,23,13,11,14.60
2007,06,23,13,12,14.50
2007,06,23,13,13,14.50
2007,06,23,13,14,14.50
2007,06,23,13,15,14.60
2007,06,23,13,16,14.70
2007,06,23,13,17,14.70
2007,06,23,13,18,14.70
2007,06,23,13,19,14.70
2007,06,23,13,20,14.90
2007,06,23,13,21,15.00
2007,06,23,13,22,15.10
2007,06,23,13,23,15.10
2007,06,23,13,24,15.10
2007,06,23,13,25,15.10
2007,06,23,13,26,15.20
2007,06,23,13,27,15.30
2007,06,23,13,28,15.10
2007,06,23,13,29,15.00
2007,06,23,13,30,15.00
2007,06,23,13,31,15.00
2007,06,23,13,32,15.00
2007,06,23,13,33,15.00
2007,06,23,13,34,14.90
2007,06,23,13,35,14.90
2007,06,23,13,36,15.00
2007,06,23,13,37,15.10
2007,06,23,13,38,15.10
2007,06,23,13,39,15.00
2007,06,23,13,40,14.80
2007,06,23,13,41,14.90
2007,06,23,13,42,15.00
2007,06,23,13,43,15.00
2007,06,23,13,44,15.10
2007,06,23,13,45,15.30
2007,06,23,13,46,15.50
2007,06,23,13,47,15.60
2007,06,23,13,48,15.70
2007,06,23,13,49,15.80
2007,06,23,13,50,15.90
2007,06,23,13,51,16.10
2007,06,23,13,52,16.20
2007,06,23,13,53,16.10
2007,06,23,13,54,16.10
2007,06,23,13,55,15.80
2007,06,23,13,56,15.60
2007,06,23,13,57,15.60
2007,06,23,13,58,15.40
2007,06,23,13,59,15.30
2007,06,23,14,00,15.40
2007,06,23,14,01,15.50
2007,06,23,14,02,15.60
2007,06,23,14,03,15.50
2007,06,23,14,04,15.40
2007,06,23,14,05,15.30
2007,06,23,14,06,15.20
2007,06,23,14,07,15.20
2007,06,23,14,08,15.20
2007,06,23,14,09,15.20
2007,06,23,14,10,15.20
2007,06,23,14,11,15.20
2007,06,23,14,12,15.20
2007,06,23,14,13,15.40
2007,06,23,14,14,15.50
2007,06,23,14,15,15.60
2007,06,23,14,16,15.70
2007,06,23,14,17,15.60
2007,06,23,14,18,15.50
2007,06,23,14,19,15.60
2007,06,23,14,20,15.60
2007,06,23,14,21,15.50
2007,06,23,14,22,15.50
2007,06,23,14,23,15.40
2007,06,23,14,24,15.50
2007,06,23,14,25,15.50
2007,06,23,14,26,15.40
2007,06,23,14,27,15.40
2007,06,23,14,28,15.50
2007,06,23,14,29,15.60
2007,06,23,14,30,15.70
2007,06,23,14,31,15.70
2007,06,23,14,32,15.60
2007,06,23,14,33,15.50
2007,06,23,14,34,15.50
2007,06,23,14,35,15.50
2007,06,23,14,36,15.50
2007,06,23,14,37,15.60
2007,06,23,14,38,15.70
2007,06,23,14,39,15.80
2007,06,23,14,40,15.70
2007,06,23,14,41,15.70
2007,06,23,14,42,15.70
2007,06,23,14,43,15.70
2007,06,23,14,44,15.80
2007,06,23,14,45,15.80
2007,06,23,14,46,15.80
2007,06,23,14,47,15.80
2007,06,23,14,48,15.70
2007,06,23,14,49,15.60
2007,06,23,14,50,15.50
2007,06,23,14,51,15.50
2007,06,23,14,52,15.60
2007,06,23,14,53,15.70
2007,06,23,14,54,15.80
2007,06,23,14,55,15.80
2007,06,23,14,56,15.80
2007,06,23,14,57,15.80
2007,06,23,14,58,15.80
2007,06,23,14,59,15.80
2007,06,23,15,00,15.90
2007,06,23,15,01,15.90
2007,06,23,15,02,15.90
2007,06,23,15,03,15.90
2007,06,23,15,04,15.90
2007,06,23,15,05,16.00
2007,06,23,15,06,16.10
2007,06,23,15,07,16.10
2007,06,23,15,08,16.00
2007,06,23,15,09,15.90
2007,06,23,15,10,15.90
2007,06,23,15,11,16.00
2007,06,23,15,12,16.00
2007,06,23,15,13,15.80
2007,06,23,15,14,15.80
2007,06,23,15,15,15.80
2007,06,23,15,16,15.80
2007,06,23,15,17,15.80
2007,06,23,15,18,15.80
2007,06,23,15,19,15.90
2007,06,23,15,20,16.00
2007,06,23,15,21,16.10
2007,06,23,15,22,16.10
2007,06,23,15,23,16.10
2007,06,23,15,24,16.10
2007,06,23,15,25,16.10
2007,06,23,15,26,16.10
2007,06,23,15,27,16.00
2007,06,23,15,28,15.80
2007,06,23,15,29,15.60
2007,06,23,15,30,15.60
2007,06,23,15,31,15.70
2007,06,23,15,32,15.70
2007,06,23,15,33,15.80
2007,06,23,15,34,15.80
2007,06,23,15,35,15.80
2007,06,23,15,36,15.80
2007,06,23,15,37,15.90
2007,06,23,15,38,15.90
2007,06,23,15,39,15.90
2007,06,23,15,40,15.70
2007,06,23,15,41,15.60
2007,06,23,15,42,15.40
2007,06,23,15,43,15.30
2007,06,23,15,44,15.30
2007,06,23,15,45,15.30
2007,06,23,15,46,15.20
2007,06,23,15,47,15.10
2007,06,23,15,48,15.00
2007,06,23,15,49,14.90
2007,06,23,15,50,14.90
2007,06,23,15,51,14.80
2007,06,23,15,52,14.70
2007,06,23,15,53,14.60
2007,06,23,15,54,14.50
2007,06,23,15,55,14.60
2007,06,23,15,56,14.60
2007,06,23,15,57,14.70
2007,06,23,15,58,14.60
2007,06,23,15,59,14.60
2007,06,23,16,00,14.70
2007,06,23,16,01,14.70
2007,06,23,16,02,14.80
2007,06,23,16,03,14.80
2007,06,23,16,04,14.90
2007,06,23,16,05,15.00
2007,06,23,16,06,15.10
2007,06,23,16,07,15.20
2007,06,23,16,08,15.20
2007,06,23,16,09,15.30
2007,06,23,16,10,15.40
2007,06,23,16,11,15.50
2007,06,23,16,12,15.60
2007,06,23,16,13,15.70
2007,06,23,16,14,15.70
2007,06,23,16,15,15.70
2007,06,23,16,16,15.80
2007,06,23,16,17,15.80
2007,06,23,16,18,15.90
2007,06,23,16,19,16.00
2007,06,23,16,20,16.10
2007,06,23,16,21,16.10
2007,06,23,16,22,16.10
2007,06,23,16,23,16.10
2007,06,23,16,24,16.10
2007,06,23,16,25,16.10
2007,06,23,16,26,16.00
2007,06,23,16,27,16.00
2007,06,23,16,28,15.90
2007,06,23,16,29,15.90
2007,06,23,16,30,15.80
2007,06,23,16,31,15.80
2007,06,23,16,32,15.80
2007,06,23,16,33,15.80
2007,06,23,16,34,15.80
2007,06,23,16,35,15.70
2007,06,23,16,36,15.60
2007,06,23,16,37,15.60
2007,06,23,16,38,15.60
2007,06,23,16,39,15.60
2007,06,23,16,40,15.60
2007,06,23,16,41,15.60
2007,06,23,16,42,15.60
2007,06,23,16,43,15.70
2007,06,23,16,44,15.70
2007,06,23,16,45,15.80
2007,06,23,16,46,15.80
2007,06,23,16,47,15.80
2007,06,23,16,48,15.80
2007,06,23,16,49,15.80
2007,06,23,16,50,15.80
2007,06,23,16,51,15.80
2007,06,23,16,52,15.80
2007,06,23,16,53,15.80
2007,06,23,16,54,15.80
2007,06,23,16,55,15.80
2007,06,23,16,56,15.80
2007,06,23,16,57,15.80
2007,06,23,16,58,15.80
2007,06,23,16,59,15.80
2007,06,23,17,00,15.80
2007,06,23,17,01,15.80
2007,06,23,17,02,15.80
2007,06,23,17,03,15.80
2007,06,23,17,04,15.80
2007,06,23,17,05,15.90
2007,06,23,17,06,15.90
2007,06,23,17,07,15.90
2007,06,23,17,08,15.90
2007,06,23,17,09,16.10
2007,06,23,17,10,16.10
2007,06,23,17,11,16.10
2007,06,23,17,12,16.10
2007,06,23,17,13,16.00
2007,06,23,17,14,15.90
2007,06,23,17,15,15.90
2007,06,23,17,16,15.90
2007,06,23,17,17,15.90
2007,06,23,17,18,15.90
2007,06,23,17,19,15.90